Location: Middelsbur
(53.6609°N, 7.5020°E)
Time: 23:35:51
(UTC+00:00)

GP-B - Pass Details

Date: 06 July 2020
Orbit: 631 x 635 km, 89.8° (Epoch: 14 August)

Event Time Altitude Azimuth Distance (km) Brightness Sun altitude
Rises 22:23:28 0° 4° (N) 2,947 8.0 -12.2°
Reaches altitude 10° 22:25:46 10° 10° (N) 2,033 6.8 -12.3°
Maximum altitude 22:30:06 48° 86° (E) 831 3.6 -12.5°
Enters shadow 22:33:06 19° 154° (SSE) 1,528 4.4 -12.6°
